This demonstration page uses our WeatherBlox Daily Observations layout. Learn more.

Left ArrowRight Arrow

Hourly Observations for November 12, 2016

Temp ( °F °C ) Dew Point ( °F °C ) Humidity (%) Winds ( mph kmh ) Pressure ( in mb ) Visibility ( mi km ) Precip ( " mm )
12:59 am 00:59 Mostly Clear 53 11.7 32 0 45 45 NNE 18 30 30.18 1022 10 16 0.00 0.00
1:59 am 01:59 Mostly Clear 51 10.6 32 0 48 48 NNE 16 26 30.22 1023 10 16 0.00 0.00
2:59 am 02:59 Mostly Clear 49 9.4 32 0 52 52 NNE 17 28 30.25 1025 10 16 0.00 0.00
3:59 am 03:59 Mostly Clear 48 8.9 32 0 54 54 NNE 16 26 30.26 1025 10 16 0.00 0.00
4:59 am 04:59 Mostly Clear 46 7.8 31 -0.6 56 56 NNE 15 24 30.29 1026 10 16 0.00 0.00
5:59 am 05:59 Partly Cloudy 46 7.8 31 -0.6 56 56 NNE 17 28 30.31 1026 10 16 0.00 0.00
6:59 am 06:59 Partly Cloudy 46 7.8 30 -1.1 54 54 NE 14 22 30.33 1027 10 16 0.00 0.00
7:59 am 07:59 Mostly Cloudy 48 8.9 32 0 54 54 NE 16 26 30.35 1028 10 16 0.00 0.00
8:59 am 08:59 Partly Cloudy 49 9.4 30 -1.1 48 48 NNE 14 22 30.37 1029 10 16 0.00 0.00
9:59 am 09:59 Partly Cloudy 51 10.6 31 -0.6 46 46 NNE 15 24 30.40 1029 10 16 0.00 0.00
10:59 am 10:59 Partly Cloudy 52 11.1 32 0 47 47 NNE 15 24 30.41 1030 10 16 0.00 0.00
11:59 am 11:59 Mostly Sunny 51 10.6 32 0 48 48 NNE 13 20 30.40 1029 10 16 0.00 0.00
12:59 pm 12:59 Mostly Sunny 52 11.1 31 -0.6 45 45 NNE 12 19 30.37 1029 10 16 0.00 0.00
1:59 pm 13:59 Mostly Sunny 51 10.6 32 0 48 48 NE 9 15 30.35 1028 10 16 0.00 0.00
2:59 pm 14:59 Sunny 50 10 32 0 50 50 VRB 7 11 30.35 1028 10 16 0.00 0.00
3:59 pm 15:59 Sunny 49 9.4 33 0.6 55 55 NNE 7 11 30.35 1028 10 16 0.00 0.00
4:59 pm 16:59 Clear 44 6.7 34 1.1 68 68 Calm 30.33 1027 10 16 0.00 0.00
5:59 pm 17:59 Clear 40 4.4 35 1.7 83 83 S 3 6 30.33 1027 10 16 0.00 0.00
6:59 pm 18:59 Clear 40 4.4 34 1.1 79 79 Calm 30.34 1027 10 16 0.00 0.00
7:59 pm 19:59 Clear 37 2.8 33 0.6 86 86 Calm 30.34 1028 10 16 0.00 0.00
8:59 pm 20:59 Clear 38 3.3 34 1.1 86 86 Calm 30.35 1028 10 16 0.00 0.00
9:59 pm 21:59 Clear 37 2.8 34 1.1 89 89 Calm 30.35 1028 10 16 0.00 0.00
10:59 pm 22:59 Clear 37 2.8 34 1.1 89 89 Calm 30.34 1027 9 14 0.00 0.00
11:59 pm 23:59 Clear 35 1.7 33 0.6 93 93 Calm 30.33 1027 8 13 0.00 0.00

Powered by AerisWeather